TELSTAR 18V (43611 NORAD) Tracking and Keplerian Element Data

This shows tracking and keplerian element data for the satellite.

Feedback or suggestion? Click here.




ElementValue
Catalog43611
NameTELSTAR 18V
Epoch Orbit2363
Epoch Day34.76502941
Epoch Year2025
RAAN269.8855
Inclination0.0084
Eccentricity0.0001736
Argument of Perigee40.1947
Mean Anonmoly237.4793
Mean Motion1.0027143
Decay Rate-2.9E-06
L11 43611U 18069A 25034.76502941 -.00000290 00000+0 00000+0 0 9997
L22 43611 0.0084 269.8855 0001736 40.1947 237.4793 1.00271430 23631



Live tracking and technical data element details for TELSTAR 18V (NORAD 43611). TELSTAR 18V can be tracked NOW for your location showing map with azimuth and elevation plus other details from your city location.







IsCatalogInMostPopularTable: catalog: 43611, numindb: 1205
Update: records affected: 1



GetName: 43611 TELSTAR 18V

Hit Count: updated at: Thu, 19 Jun 2025 09:14:44 GMT